Lapse_Rate
6.4 6.6 6.9 6.4 6.5 5.5 5.5 5.4 5.5 5.6 5.6 5.9 5.4 5.0 5.0 4.8 5.2 4.9 5.6 6.5 6.0 6.5 6.2 6.8 6.7 6.9 6.9 7.0 6.6 6.2 5.8 5.7 6.3 6.8 6.9 6.6 6.2 6.4 6.5 6.8 6.7 6.3 6.5 6.5 6.4
6.5 6.5 6.5 6.6 6.4 5.7 5.4 5.4 6.5 6.9 7.1 7.3 7.3 6.9 6.1 5.3 5.2 4.9 5.6 5.5 5.7 6.0 6.3 6.5 6.9 6.9 6.9 7.3 6.5 5.8 5.5 6.1 6.8 7.1 6.6 6.5 6.4 6.6 6.3 6.4 6.8 6.4 6.3 6.5 6.3
6.6 6.5 6.6 6.4 6.1 5.7 5.5 6.0 6.9 7.0 7.0 7.1 7.3 7.5 7.5 6.6 5.3 5.5 5.5 5.6 5.7 5.8 6.2 6.5 6.4 6.9 6.9 7.0 6.5 5.9 5.6 5.9 6.7 6.4 6.4 6.6 6.6 6.8 6.5 5.7 6.7 6.9 6.5 6.4 6.3
6.6 6.4 6.3 6.4 6.3 5.8 5.9 7.0 7.2 7.4 7.3 7.3 7.3 7.4 7.6 7.3 6.3 6.3 5.6 5.3 5.6 6.0 6.0 6.4 6.3 6.5 6.6 7.0 6.8 6.3 6.2 6.3 6.6 5.8 5.5 5.6 6.2 6.5 6.3 5.8 6.3 6.7 6.5 6.3 6.3
6.2 6.4 6.4 6.8 6.1 6.0 6.7 7.5 7.5 7.6 7.6 7.4 7.5 7.5 7.2 7.3 7.7 6.7 5.6 5.6 6.0 6.1 6.4 6.3 6.4 6.6 6.7 6.9 6.9 6.7 6.4 6.4 5.9 5.5 5.5 5.3 5.4 6.3 6.0 6.5 6.5 6.5 6.6 6.3 6.1
6.1 6.2 6.8 6.4 6.3 6.5 7.4 7.8 7.7 7.8 7.7 7.8 7.6 7.6 7.7 7.6 7.7 6.9 6.3 5.9 5.9 6.8 6.4 6.3 6.5 6.4 6.5 6.8 6.8 6.7 6.5 6.0 5.4 5.0 5.1 4.7 5.1 5.2 5.8 6.1 6.6 6.5 6.7 6.7 6.4
6.1 6.1 6.7 6.3 6.4 6.6 7.6 7.9 8.0 8.1 8.1 7.8 7.6 7.5 7.4 7.6 7.6 7.0 6.6 6.0 6.1 7.0 6.3 6.4 6.6 6.1 6.4 6.6 6.8 6.6 6.5 5.6 5.4 5.9 5.4 5.3 5.4 5.4 5.9 6.2 6.8 6.9 6.7 6.7 6.5
6.1 6.1 6.4 6.5 6.3 6.6 7.4 8.1 8.2 8.3 8.1 7.7 7.6 7.5 7.4 7.4 7.3 6.8 6.6 5.9 6.4 6.5 6.3 6.6 6.7 6.4 6.2 6.5 6.8 6.8 6.8 5.9 6.4 6.6 6.1 5.7 5.7 6.3 5.7 6.0 7.0 7.1 7.1 6.9 6.9
6.2 6.0 6.3 6.4 6.1 6.6 7.2 7.7 8.0 8.1 7.9 7.8 7.7 7.5 7.3 7.5 6.9 6.9 6.5 6.2 6.2 6.1 6.4 6.4 6.5 6.2 6.3 6.5 6.7 6.8 6.8 6.0 6.7 6.7 6.6 6.5 6.3 6.7 7.0 7.1 6.8 7.2 7.3 7.2 7.0
6.3 6.1 6.4 6.2 6.5 6.1 6.5 7.2 7.5 7.7 7.8 7.7 7.5 7.5 7.4 7.3 7.0 7.3 6.2 6.0 6.2 6.2 6.2 6.4 6.1 6.2 6.3 6.4 6.1 6.3 7.0 6.6 6.7 6.6 6.4 6.8 6.7 7.7 7.5 7.3 7.0 7.1 7.1 7.1 6.9
6.5 6.5 6.6 6.3 6.4 6.5 6.3 6.7 7.3 7.5 7.5 7.5 7.2 7.2 7.3 7.1 7.0 7.1 5.9 5.7 5.9 6.2 6.4 6.1 6.1 5.8 6.2 6.3 6.4 6.8 7.1 6.8 6.6 6.8 6.7 6.7 7.1 7.6 7.8 7.7 7.2 7.3 7.3 7.2 7.1
6.6 6.6 6.8 6.4 6.5 6.6 6.5 6.5 6.7 7.3 7.4 7.4 7.5 7.4 7.2 7.2 6.9 7.0 6.1 5.7 6.0 6.4 6.4 6.1 5.9 6.3 6.4 6.4 6.7 7.4 7.0 6.9 7.3 7.3 7.2 6.8 7.1 7.7 7.5 7.0 7.0 7.3 7.3 7.2 7.0
6.7 6.7 7.1 7.0 6.8 6.5 6.4 6.5 6.3 6.3 6.8 6.9 7.0 7.2 7.3 7.4 6.7 7.2 6.9 6.5 6.2 6.6 6.4 6.3 6.1 6.3 6.5 6.5 6.7 6.7 6.8 6.8 7.1 7.2 6.7 6.9 6.6 7.0 7.0 6.7 6.8 7.0 7.2 6.9 6.5
6.8 6.9 7.2 7.1 6.8 6.7 6.5 6.8 6.9 6.6 6.1 6.5 6.6 6.2 6.9 6.9 6.6 6.3 6.4 6.3 6.2 6.4 6.4 6.1 6.3 6.7 6.6 6.6 6.4 6.5 6.8 6.7 6.8 6.9 6.5 6.7 6.1 7.0 7.1 6.8 7.0 7.4 7.2 6.8 6.5
6.9 7.1 7.2 7.1 7.0 6.7 6.7 6.7 6.4 6.7 6.2 6.1 6.4 7.0 6.7 6.8 6.3 6.6 6.3 6.2 6.3 6.2 6.3 6.0 6.2 6.3 6.6 6.6 6.4 6.5 6.8 6.8 7.1 7.1 6.9 6.8 6.8 6.5 6.9 6.5 6.5 7.0 7.4 7.2 6.8
6.8 7.2 7.1 7.3 7.0 7.0 7.1 7.1 6.5 6.2 6.2 6.6 6.2 6.7 6.2 6.6 6.6 6.6 6.5 6.2 6.1 6.3 6.5 6.0 6.1 6.2 6.4 6.4 6.3 6.6 6.6 6.8 6.7 6.6 6.1 6.7 6.8 6.5 7.0 7.2 7.2 7.5 7.5 7.3 7.0
6.6 7.0 7.0 7.1 7.2 7.0 7.0 7.3 6.6 5.8 6.2 6.2 6.5 6.4 6.8 6.5 6.4 6.5 6.4 6.4 6.4 6.5 6.5 6.3 6.1 6.3 6.3 6.2 6.4 6.5 6.6 5.9 6.2 5.6 4.9 6.9 6.9 6.1 7.2 7.2 7.3 7.7 7.7 7.5 7.1
6.2 6.8 6.8 6.7 6.9 7.2 7.1 7.0 6.5 6.4 6.4 6.2 6.2 6.4 6.3 6.1 6.2 6.3 6.3 6.6 6.7 6.9 6.3 6.0 5.9 5.9 6.1 6.0 6.2 6.2 6.4 6.6 5.7 5.1 5.6 6.8 6.2 6.4 6.9 7.2 7.3 6.8 7.2 7.0 7.0
5.9 6.4 6.6 6.7 6.8 7.2 7.4 7.4 6.6 6.6 6.8 6.6 6.5 6.3 6.2 5.9 6.2 6.0 6.6 6.6 6.4 6.4 6.7 6.2 5.7 6.1 6.0 5.9 6.0 6.0 6.0 6.7 6.8 6.5 5.9 7.0 6.9 7.0 7.3 7.5 7.5 7.4 7.5 7.5 7.0
5.8 6.1 6.3 6.6 6.7 6.9 7.1 7.0 6.3 6.3 6.2 6.5 6.3 6.5 6.1 6.0 6.0 6.0 6.2 6.4 6.2 6.3 6.5 6.4 5.9 5.9 5.7 6.0 6.1 6.3 6.6 6.4 6.6 5.2 5.6 6.1 6.4 7.2 7.7 7.9 7.9 7.7 7.5 7.3 6.8
5.6 6.0 6.2 6.4 6.6 6.6 6.8 6.5 6.2 6.1 6.1 6.1 6.2 6.2 6.5 6.2 6.3 6.3 6.0 5.9 6.0 6.3 6.3 6.5 6.4 5.6 6.0 5.7 6.1 6.1 6.1 6.3 6.9 6.7 5.1 5.4 6.4 7.3 7.7 8.1 8.1 7.6 7.2 7.0 6.6
5.8 5.7 6.1 5.9 6.3 6.2 6.3 6.3 6.1 5.9 6.0 6.0 6.1 6.2 6.5 6.5 6.3 6.3 6.2 6.0 5.9 6.0 6.2 6.1 5.9 5.1 5.4 5.8 6.1 6.0 6.1 6.3 7.0 6.4 6.4 6.2 6.8 7.5 7.6 7.8 7.6 7.6 7.2 6.9 6.6
5.5 5.7 6.0 5.9 5.8 6.0 6.0 6.1 6.2 6.3 6.1 6.1 6.1 6.2 6.4 6.4 6.5 6.4 6.3 6.2 6.1 6.2 6.1 6.0 5.9 5.7 5.5 5.6 5.7 5.7 6.1 6.4 6.4 6.7 6.5 6.0 6.9 7.6 7.6 7.9 7.6 7.1 6.8 6.9 6.9
5.0 5.3 5.5 5.9 5.7 5.9 5.9 5.9 6.1 6.2 6.2 6.3 6.4 6.2 6.3 6.5 6.4 6.5 6.5 6.4 6.3 6.2 6.2 6.3 6.5 6.6 6.4 6.7 6.5 6.0 6.4 6.1 6.2 5.8 6.3 6.4 7.1 7.5 7.5 7.7 7.7 7.2 6.8 7.0 6.8
4.8 5.0 5.3 5.7 5.5 5.4 6.0 5.9 6.2 6.1 6.3 6.3 6.4 6.3 6.1 6.2 6.3 6.3 6.4 6.4 6.3 6.4 6.5 6.4 6.6 6.6 6.5 6.5 6.4 6.5 6.6 6.4 6.1 6.6 5.9 6.7 6.6 7.0 7.3 7.4 7.4 7.1 6.7 6.7 6.8
4.6 4.6 5.2 5.6 5.6 5.6 5.8 5.8 6.0 6.1 6.2 6.5 6.5 6.5 6.3 6.2 6.3 6.4 6.3 6.3 6.4 6.4 6.3 6.4 6.5 6.6 6.6 6.6 6.4 6.4 6.4 6.3 6.4 6.3 6.0 6.1 6.4 7.0 7.1 7.0 7.1 7.3 7.1 7.1 7.1
4.6 4.9 5.2 5.7 5.8 5.7 5.9 6.0 6.0 5.9 5.8 6.1 6.2 6.3 6.3 6.3 6.3 6.2 6.2 6.3 6.3 6.3 6.3 6.2 6.1 6.2 6.2 6.3 6.1 6.1 7.1 6.7 6.8 6.8 6.8 6.0 7.5 6.5 6.9 6.9 6.7 6.6 6.7 6.8 6.7
Wind_Speed
22 20 21 23 23 22 22 20 17 13 13 12 12 10 9 12 13 12 12 6 11 18 4 7 4 4 1 4 2 2 4 13 11 11 3 10 10 6 8 3 4 4 4 8 9
19 22 24 24 21 22 22 20 18 12 11 10 10 10 8 9 7 12 8 15 18 18 4 10 8 5 3 4 3 6 10 14 15 16 4 7 7 12 7 6 6 6 6 7 6
20 25 25 26 27 23 20 19 12 9 8 7 8 8 7 4 3 6 23 22 19 18 7 5 7 6 5 3 4 7 15 6 13 5 6 5 14 10 9 4 4 10 7 5 7
23 24 27 28 27 21 16 13 4 7 3 4 5 6 3 2 7 3 18 19 26 20 13 10 7 9 6 8 6 6 7 15 5 5 5 4 14 14 9 5 7 10 12 6 8
23 24 27 29 24 13 8 6 4 3 1 2 4 2 3 3 7 10 15 19 13 19 18 8 9 6 6 6 8 2 12 15 9 7 10 5 14 19 19 7 2 10 6 9 7
22 24 25 26 18 11 8 7 6 6 4 2 1 4 1 7 6 6 13 13 13 18 17 9 8 7 5 6 11 7 2 7 8 8 15 16 14 17 9 7 2 10 9 7 8
22 22 21 24 16 9 8 6 6 4 2 2 2 2 3 10 3 11 10 8 12 17 11 10 5 6 7 6 4 4 9 4 12 7 7 16 17 19 11 6 3 2 4 5 7
22 20 19 17 15 11 10 6 5 4 3 3 2 1 5 4 16 8 5 6 5 7 6 10 7 6 3 2 5 5 6 5 5 8 6 9 11 16 9 8 7 4 1 4 6
21 18 18 13 14 12 10 11 6 4 3 3 3 2 6 9 1 3 2 2 5 3 4 7 3 4 1 6 5 3 6 7 7 11 6 7 4 7 4 6 9 6 6 5 6
20 19 17 16 11 14 16 13 7 5 2 3 2 2 2 4 3 4 4 6 3 6 8 8 5 5 3 6 14 12 12 11 12 9 6 8 6 4 4 4 9 8 7 6 4
20 18 17 15 11 13 9 3 4 4 2 2 2 4 4 5 3 8 2 3 3 13 7 13 6 13 11 4 4 9 7 10 4 5 5 6 4 10 6 2 5 7 7 6 4
22 18 19 15 13 12 2 4 2 3 4 4 5 2 4 4 3 5 2 2 3 9 12 7 10 5 8 4 3 10 5 6 1 5 5 6 12 9 9 6 7 7 7 7 4
22 19 19 15 14 4 2 1 0 2 0 4 1 3 3 5 5 3 3 1 5 8 13 8 8 9 9 4 4 1 6 4 4 1 1 3 6 6 7 4 6 6 5 5 8
23 21 16 15 1 2 1 4 3 1 3 6 7 3 0 1 4 3 8 2 1 16 11 7 4 9 5 4 4 1 6 7 6 6 6 3 5 7 7 10 8 8 7 8 6
24 22 13 7 1 2 4 3 3 3 5 7 4 6 1 3 2 5 4 5 9 7 5 2 4 9 5 5 5 5 5 7 4 6 5 2 0 6 1 9 9 9 8 7 8
25 17 9 2 1 2 3 2 3 5 5 5 5 7 2 2 3 3 2 3 2 11 10 5 2 4 2 3 3 1 6 8 5 3 1 5 6 5 6 7 6 5 7 9 9
24 9 2 2 2 4 2 3 4 5 3 5 4 2 7 8 4 2 2 3 4 6 4 5 4 1 2 5 3 4 6 2 1 1 5 3 4 12 6 6 7 10 10 9 9
22 4 2 3 3 1 1 3 9 2 2 2 3 5 3 2 6 5 3 4 5 7 4 4 3 1 4 3 4 4 2 5 6 4 4 4 7 7 6 7 7 10 11 8 8
11 2 1 2 4 2 3 5 6 5 4 2 2 2 3 2 2 3 3 2 3 3 5 5 0 1 1 2 0 4 4 3 5 1 3 5 6 8 1 2 7 9 9 8 7
1 1 1 2 3 3 3 2 2 4 3 3 1 2 3 4 3 2 1 2 3 4 4 6 5 2 4 1 3 3 2 2 2 3 4 4 5 5 4 7 8 9 10 8 6
2 2 1 4 2 3 3 3 3 4 4 1 2 1 3 5 7 5 6 4 4 5 4 6 4 4 4 5 8 3 3 2 3 4 3 2 5 4 8 8 12 10 9 8 8
2 2 3 2 1 0 2 4 2 1 0 3 2 2 1 3 3 3 5 2 1 6 6 5 5 4 4 4 4 1 5 4 3 4 1 3 5 3 7 8 9 10 8 7 7
2 1 3 2 2 2 4 1 0 1 1 2 2 2 1 2 4 3 3 2 2 3 6 5 1 3 2 3 1 4 4 3 4 2 5 5 5 4 3 7 6 8 7 7 8
2 2 4 2 0 3 4 3 2 1 2 2 2 3 2 2 4 3 2 2 2 3 4 4 2 4 6 4 5 5 9 7 5 3 4 6 4 2 4 7 6 6 7 8 9
4 2 2 3 2 3 3 5 1 1 2 1 3 2 2 2 2 3 2 2 3 2 3 3 4 2 3 3 3 3 6 12 9 11 8 10 8 6 10 11 11 8 6 7 8
3 3 4 2 4 4 4 4 2 5 3 3 0 7 4 3 4 5 5 3 4 1 2 2 1 2 2 1 0 2 6 8 14 9 9 3 6 6 5 3 5 7 8 8 9
2 2 3 5 6 2 3 4 6 7 1 3 3 2 1 1 1 2 3 4 5 7 4 3 4 3 4 3 3 7 12 13 7 8 11 10 14 2 4 10 8 8 9 10 8
Wind_Direction
338 327 319 320 320 315 302 291 278 267 265 269 275 280 286 283 284 238 224 221 219 246 220 141 141 157 81 155 150 30 142 209 211 222 210 354 351 313 306 90 70 19 129 137 131
330 324 327 325 323 317 309 293 277 272 260 261 270 274 286 297 283 237 215 228 240 255 171 156 182 140 183 191 188 160 197 213 216 205 120 331 329 330 343 343 30 61 29 105 101
340 332 337 333 327 322 313 304 284 264 254 259 265 282 293 314 269 238 228 234 238 240 222 167 135 152 205 134 180 191 206 151 218 221 38 360 317 326 311 298 227 158 162 138 128
339 343 341 337 325 323 321 330 175 237 259 255 284 277 285 176 222 207 205 209 239 233 207 163 151 177 178 176 188 159 199 199 127 127 136 299 322 300 300 259 237 180 157 142 149
346 347 349 343 348 352 12 34 29 59 100 13 285 223 140 210 246 293 327 305 248 208 207 170 171 164 172 162 174 130 173 202 145 152 176 126 270 278 296 282 306 114 136 156 170
349 352 354 358 9 35 35 40 36 38 33 19 347 139 124 253 258 291 349 310 186 193 195 189 184 195 132 154 168 165 156 129 116 192 186 168 219 254 279 261 111 130 140 160 185
351 355 2 11 19 44 37 28 27 20 44 46 110 164 187 232 199 10 329 311 185 192 195 186 193 183 137 134 189 159 175 87 182 187 190 175 191 227 227 296 170 125 157 167 163
351 355 0 9 23 17 3 2 346 315 282 301 216 142 253 254 251 280 279 8 359 177 225 178 220 196 157 145 80 121 117 146 199 173 207 158 222 210 196 239 227 210 228 280 279
348 354 349 356 356 349 334 325 319 4 204 159 118 141 272 297 133 97 262 37 351 186 213 238 194 182 167 119 102 216 161 178 178 198 155 175 205 224 214 188 243 224 235 226 272
348 346 345 345 349 334 328 313 296 359 15 195 189 307 300 302 340 110 18 102 274 155 220 184 181 152 142 162 179 187 179 181 185 187 180 184 222 250 229 196 220 226 240 257 278
348 342 336 334 339 337 338 19 28 351 42 284 228 227 230 306 234 72 60 118 194 186 169 173 157 192 184 110 172 126 120 180 210 175 149 207 208 250 255 286 268 239 224 241 266
343 341 327 325 330 338 34 86 115 197 329 329 261 64 41 314 101 57 245 41 218 125 127 148 191 152 127 153 93 156 135 184 26 230 173 183 228 233 246 231 218 226 221 218 167
338 336 326 323 324 46 58 133 97 98 333 317 330 30 352 342 17 31 38 283 303 125 178 138 139 138 166 145 130 76 181 165 154 77 85 111 285 221 252 244 260 238 210 181 177
338 330 324 319 328 142 97 272 320 91 79 4 326 89 158 151 104 152 204 237 155 160 140 88 145 144 159 150 131 135 198 175 181 150 201 169 263 250 208 230 225 216 186 186 173
337 325 316 301 282 125 175 223 305 356 38 11 346 296 229 56 190 175 236 159 134 115 116 78 103 154 138 153 158 219 171 160 138 133 131 213 181 268 199 232 231 216 199 176 163
338 328 317 334 183 212 169 26 75 48 31 357 315 311 26 84 75 0 34 49 102 66 57 59 21 55 64 56 102 135 83 46 53 74 257 198 173 267 208 203 202 169 191 167 161
340 330 222 298 260 142 114 62 37 65 237 357 24 167 14 5 359 77 69 96 119 108 78 41 3 335 9 108 18 70 87 41 94 216 221 163 172 241 247 241 198 177 179 173 163
338 109 248 261 152 79 85 51 70 263 289 257 221 111 58 9 8 5 108 97 50 95 109 142 173 208 353 53 158 156 169 152 186 204 228 182 228 242 240 260 202 176 169 157 156
339 25 35 257 162 44 73 52 173 207 196 226 226 222 120 97 110 11 5 58 133 164 110 133 296 133 214 118 87 154 224 174 110 41 72 220 283 308 56 138 153 155 151 162 167
67 40 293 126 117 59 73 137 195 182 253 255 309 153 119 147 132 171 207 245 169 178 135 172 115 235 153 142 244 241 188 121 357 145 239 265 272 239 228 190 163 160 163 167 165
39 55 315 117 37 34 102 194 302 217 234 273 322 74 144 146 165 185 186 181 191 167 167 152 112 153 152 214 183 164 198 158 130 154 186 296 259 224 222 185 167 162 168 176 175
10 53 334 42 356 29 132 194 170 268 234 297 279 298 302 99 98 111 157 167 220 153 168 197 123 146 188 264 233 239 215 177 144 241 204 150 277 314 248 172 161 167 178 180 170
70 252 355 30 78 345 298 230 251 72 225 320 288 296 335 104 101 107 131 126 38 123 162 177 128 91 72 357 279 222 217 171 115 74 206 150 259 354 102 145 172 163 179 167 153
73 40 333 36 282 332 357 223 224 177 281 315 291 335 344 42 45 139 114 38 34 98 85 85 126 163 185 201 144 198 194 192 148 172 205 224 281 272 193 172 181 183 180 165 169
33 32 62 324 342 341 312 308 72 231 181 33 314 276 303 239 104 121 111 42 13 69 77 110 173 126 254 137 138 215 191 181 194 214 203 248 219 224 210 191 191 190 170 159 170
95 42 349 288 291 291 0 344 73 337 43 335 293 327 267 249 204 197 136 179 195 117 101 29 158 95 303 254 61 291 247 220 222 217 240 200 266 228 246 235 192 192 172 179 186
342 15 102 307 328 294 24 347 358 337 207 87 338 338 296 103 302 357 193 176 161 155 150 113 129 92 264 18 360 299 229 211 212 205 215 210 227 222 231 193 201 195 187 188 188